LiveATC.Net - Listen to live air traffic control over the Internet! Contact LiveATC.net for advertising information


ICAO: KRVS  IATA: RVS   Airport: Richard Lloyd Jones Jr Airport
City: Tulsa   State/Province: Oklahoma
Country: United States   Continent: North America
KRVS METAR Weather: KRVS 301553Z 00000KT 10SM CLR 31/20 A2999 RMK AO2 SLP158 T03110200
KRVS Flight Activity (FlightAware)
KRVS Airport Info   (AirNav) (iFlightPlanner)
KRVS VFR Sectional Chart   (iFlightPlanner) 
KRVS IFR Low Chart   (iFlightPlanner) 
KRVS Tower
Feed Status: DOWN
Last heard on: 2015-06-08 23:32:03 (21 days 17 hours 13 minutes ago)
KRVS Tower Audio Archives
FacilityFrequency
Riverside Tower120.300


NOTICE

Unauthorized use prohibited. See LiveATC.net Terms of Service


Find LiveATC Audio Streams


Airport/ARTCC Code

Frequency
(e.g., 124.400, 128.75)
Site-wide search

Browse LiveATC Feeds
LiveATC Coverage Map
Top 50 LiveATC Feeds
Bad Weather Areas

LiveATC FAQ
Offer a LiveATC Feed
Contact LiveATC.net
Press Inquiries

LiveATC on iPhone
LiveATC on Android

LiveATC Mobile
(Mobile browser)

ATC Audio Archives
Interesting Recordings

LiveATC Forums


Home Page
About LiveATC.net
Make a Donation
LiveATC Bookstore

Terms of Use
Privacy Policy

ATC/Radar Sites
U.S. ARTCC Freqs
Canadian Air Freqs

AIRMETs/SIGMETs

FAA Airport Status
Nat'l Airspace Status
Arrival Demand Charts


Server Software By:
Icecast.org
Liquidsoap

Please make a donation to help us keep growing!